Regional Weather Roundup
Issued by NWS Green Bay, WI

Home | Current Version | Previous Version | Text Only | Print | Product List | Glossary On
Versions: 1 2 3 4 5 6 7 8 9 10 11 12 13 14 15 16 17 18 19 20 21 22 23 24 25 26 27 28 29 30 31 32 33 34 35 36 37 38 39 40 41 42 43 44 45 46 47 48 49 50
000
ASUS43 KGRB 110311
RWRGRB

NORTH-CENTRAL AND NORTHEAST WISCONSIN REGIONAL WEATHER ROUNDUP
NATIONAL WEATHER SERVICE GREEN BAY WI
900 PM CST WED FEB 10 2016

WIZ005-009-010>012-018-019-110400-
NORTH CENTRAL WISCONSIN

CITY           SKY/WX    TMP DP  RH WIND       PRES   REMARKS
IRONWOOD       CLOUDY     9   3  78 NW7       30.10S WCI  -3
MANITOWISH WTR CLOUDY     5  -1  76 NW7       30.08S WCI  -7
ARBOR VITAE    CLOUDY     8   2  75 NW6       30.08R WCI  -2
EAGLE RIVER    CLOUDY     6  -3  67 N6        30.06R WCI  -5
LAND O LAKES   CLOUDY     7   0  74 NW7       30.06R WCI  -5
RHINELANDER    CLOUDY     6  -3  66 VRB7      30.08R WCI  -6
PHILLIPS       CLOUDY    -6  -9  86 NW3       30.12R
ANTIGO         CLOUDY     2  -6  70 NW5       30.08R WCI  -8
TOMAHAWK       CLOUDY     6  -3  67 NW7       30.11R WCI  -6
MERRILL        MOCLDY     4  -4  68 N7        30.12R WCI  -8
$$

WIZ013-073-110400-
NORTHEAST WISCONSIN

CITY           SKY/WX    TMP DP  RH WIND       PRES   REMARKS
IRON MOUNTAIN  CLOUDY     7  -4  60 NW6       30.07S WCI  -3
MARINETTE      CLEAR      5  -8  56 N6        30.12S WCI  -6
OCONTO         CLEAR      5  -6  61 CALM      30.14R
$$

WIZ017-030-035>037-045-110400-
CENTRAL WISCONSIN

CITY           SKY/WX    TMP DP  RH WIND       PRES   REMARKS
MEDFORD        CLEAR      2  -5  73 N6        30.11R WCI  -9
WAUSAU         PTCLDY     6  -4  63 NW7       30.12R WCI  -6
MOSINEE        CLEAR      5  -4  66 N6        30.13R WCI  -6
MARSHFIELD     CLOUDY     2  -8  63 NW8       30.12R WCI -12
WISC RAPIDS    CLEAR      4  -6  63 NW6       30.16R WCI  -7
STEVENS POINT  CLEAR      3  -6  66 N5        30.14R WCI  -7
WAUPACA        PTCLDY     8  -5  54 NW3       30.15R
SHAWANO        CLEAR      9  -4  55 NW3       30.14R
CLINTONVILLE   CLEAR      9  -6  52 N6        30.14R WCI  -1
WAUTOMA        PTCLDY     2  -7  66 NW7       30.16R WCI -10
$$

WIZ038-039-048-051-110400-
FOX VALLEY

CITY           SKY/WX    TMP DP  RH WIND       PRES   REMARKS
NWS GREEN BAY  CLEAR      3  -7  63 N6        30.13R WCI  -8
APPLETON       PTCLDY     7  -8  51 NW7       30.10R WCI  -5
OSHKOSH        CLEAR      5  -6  60 W7        30.13R WCI  -7
FOND DU LAC    CLEAR      7  -4  60 W10       30.13R WCI  -8
$$

WIZ022-050-052-110400-
EAST CENTRAL WISCONSIN

CITY           SKY/WX    TMP DP  RH WIND       PRES   REMARKS
EPHRAIM        FAIR       8  -4  60 NW12G17   30.09R WCI  -7
STURGEON BAY   CLEAR      7  -6  56 N12       30.12S WCI  -9
MANITOWOC      CLEAR      7  -4  60 NW7       30.13R WCI  -5
SHEBOYGAN      CLEAR      4  -6  63 NW3       30.12R
$$

LMZ563-521-522-541>543-110400-
LAKESHORE

STATION/POSITION TIME  TEMP    WIND        PRES    VSBY  WAVE
                       AIR SEA DIR/SP/G                  HT/PER
                 (UTC) (F)     (DEG/KT/KT) (MB)    (MI)  (FT/S)
SHEBOYGAN LKSHOR 0300   10     300/  8/  9 1021.9R
KEWAUNEE LKSHORE 0200    9                   N/A
ALGOMA MARINA    0211          340/  6/  9   N/A
CHAMBERS ISLAND  0200    9     300/ 15/ 22 1019.6R
MENOMINEE LKSHOR 0200    9                   N/A
$$



USA.gov is the U.S. government's official web portal to all federal, state and local government web resources and services.